User: anonymous   Login
Location: Unspecified
(0.0000°N, 0.0000°E)
Time: 03:32:31
(UTC+00:00)
Language:

Nadezhda 3 - Orbit

View from above orbital plane
View from above orbital plane
View from above satellite
View from above satellite

Ground track
Ground track

The orbit data is extracted from the following two-line orbital elements,

1 21152U 91019A   17173.59390692 +.00000046 +00000-0 +32478-4 0  9991
2 21152 082.9266 217.2962 0040850 216.0233 297.4850 13.74220367317415
Epoch (UTC): 22 June 2017 14:15:13
Eccentricity: 0.0040850
inclination: 82.9266°
perigee height: 954 km
apogee height: 1014 km
right ascension of ascending node: 217.2962°
argument of perigee: 216.0233°
revolutions per day: 13.74220367
mean anomaly at epoch: 297.4850°
orbit number at epoch: 31741

The dashed part of the orbit path shows where the satellite is in the earth's shadow,  

DLR